AC2EV Weather Reports


Display with metric or nautical units.
time (UTC)temp
F
wind
direction
speed
MPH
gust
MPH
rain 1hr
in
rain 24hr
in
rain mn
in
humidity
%
barometer
mb
20260903135258 75 242 0.0 0.0 0.00 1.18 0.00 84 1013.0
20260903134758 75 242 0.0 0.0 0.00 1.18 0.00 85 1012.9
20260903134258 75 242 0.0 0.0 0.00 1.18 0.00 85 1013.0
20260903133759 75 239 0.0 0.0 0.00 1.18 0.00 86 1013.1
20260903133258 74 240 0.0 0.0 0.00 1.18 0.00 86 1013.1
20260903132754 74 240 0.0 0.0 0.00 1.18 0.00 86 1013.2
20260903132254 74 239 0.0 1.0 0.00 1.18 0.00 86 1013.2
20260903131754 74 239 0.0 4.0 0.00 1.18 0.00 87 1013.2
20260903131255 74 259 0.0 4.0 0.00 1.18 0.00 87 1013.3
20260903130752 74 236 0.0 0.0 0.00 1.18 0.00 88 1013.4
20260903130252 74 233 0.0 0.0 0.00 1.18 0.00 89 1013.3
20260903125752 73 233 0.0 0.0 0.00 1.18 0.00 89 1013.3
20260903125252 73 231 0.0 0.0 0.00 1.18 0.00 89 1013.3
20260903124752 73 229 0.0 0.0 0.00 1.18 0.00 90 1013.4
20260903124250 72 229 0.0 1.0 0.00 1.20 0.00 90 1013.4
20260903123748 72 227 0.0 1.0 0.00 1.23 0.00 90 1013.3
20260903123246 72 242 0.0 0.0 0.00 1.25 0.00 90 1013.4
20260903122745 71 243 0.0 0.0 0.00 1.33 0.00 90 1013.3
20260903122242 71 246 0.0 1.0 0.00 1.38 0.00 90 1013.3
20260903121742 71 236 0.0 1.0 0.00 1.41 0.00 90 1013.3
20260903120738 71 15 0.0 0.0 0.00 1.41 0.00 90 1013.0
20260903120238 70 22 0.0 0.0 0.00 1.41 0.00 90 1012.9
20260903115738 70 17 0.0 0.0 0.00 1.41 0.00 90 1012.9
20260903115236 70 240 0.0 0.0 0.00 1.41 0.00 90 1012.9
20260903114734 70 16 0.0 0.0 0.00 1.41 0.00 90 1012.8
20260903114233 70 18 0.0 0.0 0.00 1.41 0.00 90 1012.8
20260903113730 70 19 0.0 0.0 0.00 1.41 0.00 90 1012.8
20260903113231 69 19 0.0 0.0 0.00 1.41 0.00 90 1012.8
20260903112731 69 23 0.0 0.0 0.00 1.41 0.00 90 1012.8
20260903112231 69 26 0.0 0.0 0.00 1.41 0.00 90 1012.8
20260903111731 69 24 0.0 0.0 0.00 1.41 0.00 90 1012.6
20260903111225 69 27 0.0 0.0 0.00 1.41 0.00 90 1012.6
20260903110720 69 24 0.0 0.0 0.00 1.41 0.00 90 1012.6
20260903110213 69 24 0.0 0.0 0.00 1.41 0.00 90 1012.5
20260903105710 69 24 0.0 0.0 0.00 1.41 0.00 90 1012.4
20260903105210 69 24 0.0 0.0 0.00 1.41 0.00 90 1012.5
20260903104710 69 24 0.0 0.0 0.00 1.41 0.00 90 1012.4
20260903104210 69 24 0.0 0.0 0.00 1.41 0.00 89 1012.4
20260903103710 69 21 0.0 0.0 0.00 1.41 0.00 89 1012.3
20260903103208 69 21 0.0 1.0 0.00 1.41 0.00 89 1012.1
20260903102708 69 22 0.0 1.0 0.00 1.41 0.00 89 1012.3
20260903102208 69 21 0.0 0.0 0.00 1.41 0.00 89 1012.1
20260903101708 69 22 0.0 0.0 0.00 1.41 0.00 89 1012.0
20260903101207 69 22 0.0 0.0 0.00 1.41 0.00 89 1011.9
20260903100706 69 22 0.0 0.0 0.00 1.41 0.00 89 1011.8
20260903100206 69 22 0.0 0.0 0.00 1.41 0.00 89 1011.8
20260903095706 69 22 0.0 0.0 0.00 1.41 0.00 88 1011.7
20260903095206 69 22 0.0 0.0 0.00 1.41 0.00 88 1011.8
20260903094706 68 22 0.0 0.0 0.00 1.41 0.00 89 1011.7
20260903094205 68 22 0.0 0.0 0.00 1.41 0.00 89 1011.7
20260903093707 68 22 0.0 0.0 0.00 1.41 0.00 89 1011.8
20260903093201 68 22 0.0 0.0 0.00 1.41 0.00 89 1011.7
20260903092656 68 22 0.0 0.0 0.00 1.41 0.00 89 1011.8
20260903092148 68 23 0.0 0.0 0.00 1.41 0.00 89 1011.9
20260903091643 68 23 0.0 0.0 0.00 1.41 0.00 88 1011.8
20260903091144 68 24 0.0 0.0 0.00 1.41 0.00 88 1011.9
20260903090641 68 24 0.0 0.0 0.00 1.41 0.00 89 1011.8
20260903090141 68 25 0.0 0.0 0.00 1.41 0.00 89 1011.9
20260903085642 68 26 0.0 0.0 0.00 1.41 0.00 89 1011.9
20260903085139 68 26 0.0 0.0 0.00 1.41 0.00 89 1011.8
20260903084637 68 27 0.0 0.0 0.00 1.41 0.00 89 1011.8
20260903084136 67 27 0.0 0.0 0.00 1.41 0.00 89 1011.8
20260903083634 67 28 0.0 0.0 0.00 1.41 0.00 89 1011.8
20260903083133 68 30 0.0 0.0 0.00 1.41 0.00 89 1011.8
20260903082635 68 29 0.0 0.0 0.00 1.41 0.00 89 1011.8
20260903082134 68 28 0.0 0.0 0.00 1.41 0.00 89 1011.8
20260903081633 68 28 0.0 0.0 0.00 1.41 0.00 89 1011.7
20260903081136 68 28 0.0 0.0 0.00 1.41 0.00 89 1011.7
20260903080632 68 27 0.0 0.0 0.00 1.41 0.00 89 1011.7
20260903080131 68 26 0.0 0.0 0.00 1.41 0.00 89 1011.7
20260903075632 68 25 0.0 0.0 0.00 1.41 0.00 89 1011.6
20260903075131 68 26 0.0 0.0 0.00 1.41 0.00 89 1011.6
20260903074631 68 26 0.0 0.0 0.00 1.41 0.00 89 1011.5
20260903074130 68 26 0.0 0.0 0.00 1.41 0.00 90 1011.5
20260903073631 68 25 0.0 0.0 0.00 1.41 0.00 90 1011.4
20260903073129 68 28 0.0 0.0 0.00 1.41 0.00 90 1011.4
20260903072627 68 28 0.0 0.0 0.00 1.41 0.00 90 1011.4
20260903072127 68 26 0.0 0.0 0.00 1.41 0.00 90 1011.4
20260903071628 69 26 0.0 0.0 0.00 1.41 0.00 90 1011.5
20260903071131 69 26 0.0 0.0 0.00 1.41 0.00 90 1011.6
20260903070623 69 26 0.0 0.0 0.00 1.41 0.00 90 1011.6
20260903070121 69 26 0.0 0.0 0.00 1.41 0.00 90 1011.8
20260903065619 69 26 0.0 0.0 0.00 1.41 0.00 90 1011.8
20260903065133 69 26 0.0 0.0 0.00 1.41 0.00 90 1011.7
20260903064619 69 27 0.0 0.0 0.00 1.41 0.00 90 1011.8
20260903064120 69 27 0.0 0.0 0.00 1.41 0.00 90 1011.7
20260903063618 69 26 0.0 0.0 0.00 1.41 0.00 90 1011.9
20260903063117 69 27 0.0 0.0 0.00 1.41 0.00 90 1011.7
20260903062617 69 26 0.0 0.0 0.00 1.41 0.00 90 1011.8
20260903062118 69 26 0.0 0.0 0.00 1.41 0.00 90 1011.8
20260903061616 69 26 0.0 0.0 0.00 1.41 0.00 90 1011.7
20260903061115 69 25 0.0 0.0 0.00 1.41 0.00 90 1011.8
20260903060617 69 25 0.0 0.0 0.00 1.41 0.00 90 1011.9
20260903060128 69 25 0.0 0.0 0.00 1.41 0.00 90 1011.9
20260903055615 69 25 0.0 0.0 0.00 1.41 0.00 90 1011.7
20260903055115 69 25 0.0 0.0 0.00 1.41 0.00 90 1011.7
20260903054617 69 25 0.0 0.0 0.00 1.41 0.00 90 1011.8
20260903054115 69 25 0.0 0.0 0.00 1.41 0.00 90 1012.0
20260903053611 69 25 0.0 0.0 0.00 1.41 0.00 90 1012.3
20260903053111 69 24 0.0 0.0 0.00 1.41 0.00 90 1012.3
20260903052613 69 24 0.0 0.0 0.00 1.41 0.00 90 1012.0
20260903052111 70 24 0.0 0.0 0.00 1.41 0.00 90 1011.9
20260903051613 70 25 0.0 0.0 0.00 1.41 0.00 90 1011.6
20260903051111 70 25 0.0 0.0 0.00 1.41 0.00 90 1011.5
20260903050609 70 24 0.0 0.0 0.00 1.41 0.00 90 1011.6
20260903050128 70 25 0.0 0.0 0.00 1.41 0.00 90 1011.5
20260903045609 70 24 0.0 0.0 0.00 1.41 0.00 90 1011.4
20260903045129 70 24 0.0 0.0 0.00 1.41 0.00 90 1011.3
20260903044608 70 24 0.0 0.0 0.00 1.41 0.00 90 1011.2
20260903044108 70 24 0.0 3.0 0.00 1.41 0.00 90 1011.1
20260903043608 70 24 0.0 3.0 0.00 1.41 0.00 90 1011.1
20260903043108 70 24 0.0 3.0 0.00 1.41 0.00 90 1011.2
20260903042608 70 22 0.0 1.0 0.00 1.41 0.00 90 1011.1
20260903042105 70 23 0.0 2.0 0.00 1.41 0.00 90 1010.9
20260903041604 70 22 0.0 2.0 0.00 1.41 0.00 90 1010.8
20260903041103 70 22 0.0 1.0 0.00 1.41 0.00 90 1010.8
20260903040604 70 22 0.0 0.0 0.00 1.41 0.00 90 1010.9
20260903040103 70 18 0.0 0.0 0.00 1.41 0.00 90 1010.9
20260903035604 70 20 0.0 0.0 0.00 1.41 1.41 90 1010.9
20260903035102 70 20 0.0 0.0 0.00 1.41 1.41 90 1011.0
20260903034604 70 22 0.0 0.0 0.00 1.41 1.41 90 1010.9
20260903034101 70 23 0.0 0.0 0.00 1.41 1.41 90 1011.1
20260903033556 70 23 0.0 0.0 0.00 1.41 1.41 90 1011.2
20260903033122 70 22 0.0 0.0 0.00 1.41 1.41 90 1011.3
20260903032543 70 22 0.0 0.0 0.00 1.41 1.41 90 1011.3
20260903032041 70 22 0.0 0.0 0.00 1.41 1.41 90 1011.5
20260903031541 70 21 0.0 0.0 0.00 1.41 1.41 90 1011.6
20260903031040 70 21 0.0 1.0 0.00 1.41 1.41 90 1011.7
20260903030540 70 21 0.0 5.0 0.00 1.41 1.41 90 1011.8
20260903030038 70 24 0.0 5.0 0.03 1.41 1.41 89 1011.8
20260903025539 70 22 0.0 1.0 0.03 1.41 1.41 89 1011.7
20260903025035 70 24 0.0 5.0 0.03 1.41 1.41 89 1011.7
20260903024535 70 24 0.0 5.0 0.03 1.41 1.41 89 1011.8
20260903024116 70 24 0.0 4.0 0.04 1.41 1.41 89 1011.7
20260903023533 70 23 0.0 4.0 0.05 1.41 1.41 89 1011.9
20260903023034 69 22 0.0 4.0 0.07 1.41 1.41 89 1011.8
20260903022533 69 20 0.0 5.0 0.07 1.41 1.41 89 1012.0
20260903022118 69 21 0.0 5.0 0.07 1.41 1.41 89 1011.8
20260903021532 69 20 0.0 5.0 0.07 1.41 1.41 89 1012.1
20260903021119 69 23 0.0 9.0 0.07 1.41 1.41 89 1012.8
20260903020532 69 24 0.0 9.0 0.08 1.41 1.41 89 1013.1
20260903020032 69 22 0.0 5.0 0.05 1.38 1.38 89 1012.5
20260903015532 69 22 0.0 3.0 0.05 1.38 1.38 89 1011.7
20260903015029 69 19 0.0 3.0 0.05 1.38 1.38 89 1011.1
20260903014524 69 21 1.0 10.0 0.06 1.38 1.38 89 1011.0
20260903014018 69 19 1.0 11.0 0.06 1.37 1.37 89 1010.9
20260903013511 69 19 0.0 11.0 0.06 1.36 1.35 89 1011.1
20260903013008 69 25 0.0 7.0 0.05 1.34 1.34 89 1011.6
20260903012554 69 19 0.0 8.0 0.07 1.34 1.34 89 1012.3
20260903012119 69 20 0.0 8.0 0.08 1.34 1.34 89 1012.5
20260903011508 69 18 0.0 7.0 0.08 1.34 1.34 89 1012.0
20260903011007 69 19 0.0 8.0 0.09 1.34 1.33 89 1012.0
20260903010601 69 20 0.0 9.0 0.08 1.33 1.33 89 1012.0
20260903010116 69 19 0.0 9.0 0.09 1.33 1.33 89 1012.0
20260903005507 69 18 0.0 4.0 0.22 1.33 1.33 89 1011.9
20260903005005 69 18 0.0 4.0 0.24 1.33 1.33 89 1012.0
20260903004506 69 19 0.0 4.0 0.24 1.32 1.32 89 1012.3
20260903004005 70 19 0.0 4.0 0.26 1.31 1.31 89 1012.5
20260903003505 70 19 0.0 1.0 0.37 1.30 1.30 89 1012.5
20260903003007 69 19 0.0 4.0 0.50 1.29 1.28 89 1012.9
20260903002620 69 19 0.0 4.0 0.63 1.27 1.27 89 1012.6
20260902230502 81 355 0.0 1.0 0.00 0.23 0.23 81 1011.3
20260902230005 82 209 0.0 0.0 0.00 0.23 0.23 81 1010.2
20260902225504 82 209 0.0 0.0 0.00 0.23 0.23 80 1010.0
20260902225002 82 209 0.0 0.0 0.00 0.23 0.23 80 1010.3
20260902224504 82 209 0.0 0.0 0.00 0.23 0.23 79 1010.1
20260902224004 83 209 0.0 0.0 0.00 0.23 0.23 78 1010.8
20260902223504 83 209 0.0 0.0 0.00 0.23 0.23 78 1011.2
20260902223003 83 209 0.0 0.0 0.00 0.23 0.23 77 1010.9
20260902222504 83 209 0.0 0.0 0.00 0.23 0.23 77 1010.8
20260902222002 84 209 0.0 0.0 0.00 0.23 0.23 76 1010.3
20260902221608 84 209 0.0 0.0 0.00 0.23 0.23 76 1010.7
20260902221115 84 209 0.0 0.0 0.00 0.23 0.23 76 1010.6
20260902220504 84 209 0.0 0.0 0.00 0.23 0.23 76 1010.4
20260902220116 85 223 0.0 0.0 0.00 0.23 0.23 75 1010.5
20260902215504 85 223 0.0 0.0 0.00 0.23 0.23 75 1010.6
20260902215002 85 223 0.0 0.0 0.00 0.23 0.23 75 1010.7
20260902214504 85 223 0.0 0.0 0.00 0.23 0.23 75 1010.8
20260902213956 85 223 0.0 0.0 0.00 0.23 0.23 75 1010.9
20260902213450 85 223 0.0 0.0 0.00 0.23 0.23 74 1011.3
20260902213114 85 223 0.0 0.0 0.00 0.23 0.23 75 1011.4
20260902212438 85 223 0.0 0.0 0.00 0.23 0.23 75 1011.6
20260902211937 85 223 0.0 0.0 0.00 0.23 0.23 74 1011.6
20260902211435 85 223 0.0 0.0 0.00 0.23 0.23 73 1011.2
20260902210931 85 223 0.0 0.0 0.00 0.23 0.23 73 1011.1
20260902210430 85 223 0.0 0.0 0.00 0.23 0.23 73 1011.2
20260902205931 85 223 0.0 0.0 0.00 0.23 0.23 73 1011.3
20260902205431 85 223 0.0 0.0 0.00 0.23 0.23 72 1011.5
20260902204931 85 223 0.0 0.0 0.00 0.23 0.23 72 1011.7
20260902204430 85 223 0.0 0.0 0.00 0.23 0.23 72 1011.8
20260902203931 85 223 0.0 0.0 0.00 0.23 0.23 72 1012.1
20260902203430 85 223 0.0 0.0 0.00 0.23 0.23 70 1012.6
20260902202931 86 223 0.0 0.0 0.00 0.23 0.23 71 1012.6
20260902202430 85 223 0.0 0.0 0.00 0.23 0.23 70 1012.7
20260902201931 85 223 0.0 0.0 0.00 0.23 0.23 71 1012.7
20260902201430 85 229 0.0 1.0 0.00 0.23 0.23 70 1012.8
20260902200931 85 229 0.0 1.0 0.00 0.23 0.23 70 1012.8
20260902200431 85 223 0.0 4.0 0.00 0.23 0.23 71 1013.0
20260902195931 85 229 0.0 5.0 0.00 0.23 0.23 70 1013.1
20260902195431 84 224 0.0 5.0 0.00 0.23 0.23 71 1013.0
20260902194931 84 232 0.0 6.0 0.00 0.23 0.23 73 1013.2
20260902194431 83 232 0.0 6.0 0.00 0.23 0.23 72 1013.2
20260902194114 83 228 0.0 5.0 0.00 0.23 0.23 72 1013.1
20260902193431 83 259 0.0 4.0 0.00 0.23 0.23 73 1013.1
20260902192930 83 236 0.0 1.0 0.00 0.23 0.23 74 1012.9
20260902192431 83 259 1.0 8.0 0.00 0.23 0.23 74 1013.0
20260902191931 83 242 1.0 8.0 0.00 0.23 0.23 74 1013.0
20260902191432 83 208 1.0 7.0 0.00 0.23 0.23 75 1013.0
20260902190930 83 209 1.0 7.0 0.00 0.23 0.23 76 1012.9
20260902190432 83 234 0.0 6.0 0.00 0.23 0.23 77 1012.9
20260902185930 83 221 0.0 4.0 0.00 0.23 0.23 77 1012.9
20260902185432 83 221 0.0 4.0 0.00 0.23 0.23 77 1012.9
20260902184930 83 236 0.0 4.0 0.00 0.23 0.23 75 1012.9
20260902184432 84 219 0.0 1.0 0.00 0.23 0.23 76 1012.8
20260902183931 84 215 0.0 2.0 0.00 0.23 0.23 75 1012.5
20260902183432 84 219 0.0 4.0 0.00 0.23 0.23 76 1012.6
20260902182930 83 218 0.0 4.0 0.00 0.23 0.23 77 1012.4
20260902182432 83 218 0.0 3.0 0.00 0.23 0.23 76 1012.5
20260902181930 83 218 0.0 3.0 0.00 0.23 0.23 76 1012.6
20260902181432 83 250 0.0 3.0 0.00 0.23 0.23 76 1012.8
20260902180931 83 232 0.0 2.0 0.00 0.23 0.23 76 1012.8
20260902180432 83 229 0.0 2.0 0.00 0.23 0.23 75 1012.8
20260902175931 83 226 0.0 2.0 0.00 0.23 0.23 75 1012.9
20260902175429 84 216 0.0 2.0 0.00 0.23 0.23 73 1013.0
20260902174926 84 211 0.0 10.0 0.00 0.23 0.23 73 1013.1
20260902174428 84 175 0.0 10.0 0.00 0.23 0.23 73 1013.2
20260902173926 84 221 1.0 8.0 0.00 0.23 0.23 72 1013.3
20260902173433 85 219 0.0 6.0 0.00 0.23 0.23 71 1013.4
20260902172926 85 221 0.0 5.0 0.00 0.23 0.23 71 1013.6
20260902172427 85 195 1.0 9.0 0.00 0.23 0.23 72 1013.7
20260902171926 84 210 0.0 9.0 0.00 0.23 0.23 74 1013.7
20260902171424 84 215 0.0 7.0 0.00 0.23 0.23 73 1013.6
20260902170924 84 230 0.0 7.0 0.00 0.23 0.23 73 1013.6
20260902170418 84 205 0.0 7.0 0.00 0.23 0.23 74 1013.6
20260902165917 83 159 0.0 5.0 0.00 0.23 0.23 75 1013.5
20260902165417 83 229 0.0 9.0 0.00 0.23 0.23 75 1013.6
20260902164917 83 237 1.0 9.0 0.00 0.23 0.23 75 1013.5
20260902164417 83 182 1.0 9.0 0.00 0.23 0.23 75 1013.4
20260902163916 83 193 1.0 7.0 0.00 0.23 0.23 74 1013.4
20260902163417 83 221 0.0 4.0 0.00 0.23 0.23 75 1013.5
20260902162915 82 232 0.0 2.0 0.00 0.23 0.23 77 1013.5
20260902162415 82 234 0.0 2.0 0.00 0.23 0.23 78 1013.6
20260902161915 82 234 0.0 5.0 0.00 0.23 0.23 78 1013.8
20260902161414 81 234 0.0 5.0 0.00 0.23 0.23 77 1013.7
20260902160915 81 238 0.0 2.0 0.00 0.23 0.23 78 1013.7
20260902160411 80 238 0.0 7.0 0.00 0.23 0.23 79 1013.8
20260902155911 80 239 0.0 7.0 0.00 0.23 0.23 78 1013.8
20260902155411 79 228 0.0 8.0 0.00 0.23 0.23 80 1013.9
20260902154911 79 228 0.0 8.0 0.00 0.23 0.23 80 1014.0
20260902154539 78 204 0.0 6.0 0.00 0.23 0.23 80 1013.9
20260902154102 78 200 0.0 6.0 0.00 0.23 0.23 82 1013.9
20260902153545 77 200 0.0 5.0 0.00 0.23 0.23 83 1014.0
20260902153105 76 199 0.0 1.0 0.00 0.23 0.23 85 1014.0
20260902152411 76 200 0.0 3.0 0.00 0.23 0.23 86 1014.0
20260902152058 75 200 0.0 3.0 0.00 0.23 0.23 87 1014.1
20260902151411 74 200 0.0 2.0 0.00 0.23 0.23 88 1014.2
20260902151059 74 209 0.0 0.0 0.00 0.23 0.23 89 1014.0
20260902150411 73 209 0.0 7.0 0.00 0.23 0.23 89 1014.2
20260902145911 73 209 0.0 7.0 0.00 0.23 0.23 90 1014.2
20260902145411 72 211 0.0 5.0 0.00 0.23 0.23 90 1014.2
20260902144910 72 186 0.0 2.0 0.00 0.23 0.23 90 1014.3
20260902144540 72 186 0.0 0.0 0.00 0.23 0.23 90 1014.4
20260902144102 72 186 0.0 6.0 0.00 0.23 0.23 89 1014.4
20260902143411 72 185 0.0 6.0 0.00 0.23 0.23 89 1014.4
20260902142911 72 185 0.0 0.0 0.00 0.23 0.23 89 1014.6
20260902142411 71 12 0.0 11.0 0.00 0.23 0.23 89 1014.5
20260902141908 71 12 0.0 11.0 0.00 0.23 0.23 89 1014.6
20260902141407 71 11 0.0 4.0 0.00 0.23 0.23 88 1014.7
20260902140907 71 11 0.0 2.0 0.00 0.23 0.23 89 1014.9
20260902140405 70 11 0.0 2.0 0.00 0.23 0.23 89 1014.9
20260902140101 70 14 0.0 2.0 0.00 0.23 0.23 89 1014.9